EW0250 Weather Reports


time (UTC)temp
F
wind
direction
speed
knots
gust
knots
rain 1hr
in
rain 24hr
in
rain mn
in
humidity
%
barometer
mb
20260506221531 47 188 0.0 1.7 0.02 1.03 0.98 85 1007.3
20260506220031 47 113 0.9 4.3 0.02 1.03 0.98 85 1006.7
20260506214527 48 94 0.0 3.5 0.23 1.02 0.97 85 1006.4
20260506213024 48 275 0.9 4.3 0.26 1.01 0.96 85 1006.4
20260506211535 49 196 1.7 4.3 0.26 1.01 0.96 84 1005.8
20260506210030 52 48 0.9 4.3 0.26 1.01 0.96 82 1005.6
20260506204516 57 239 0.9 5.2 0.04 0.79 0.74 80 1004.6
20260506203013 61 8 0.0 1.7 0.00 0.75 0.70 86 1004.4
20260506201513 61 55 0.0 0.9 0.01 0.75 0.70 86 1004.4
20260506200012 61 44 0.0 2.6 0.02 0.75 0.70 86 1004.6
20260506194507 61 38 0.0 1.7 0.03 0.75 0.70 86 1004.7
20260506193009 61 54 0.0 2.6 0.08 0.75 0.70 86 1004.9
20260506191507 61 42 0.0 2.6 0.11 0.74 0.69 86 1004.9
20260506190006 61 67 0.9 3.5 0.12 0.73 0.68 86 1004.8
20260506184504 61 44 0.0 1.7 0.13 0.72 0.67 86 1005.0
20260506183004 60 69 0.0 1.7 0.16 0.67 0.62 86 1005.0
20260506181506 61 32 0.0 1.7 0.15 0.63 0.57 86 1005.1
20260506180003 61 32 0.0 3.5 0.16 0.61 0.56 86 1005.1
20260506174600 60 37 0.9 3.5 0.17 0.59 0.54 86 1005.1
20260506173127 60 49 0.0 0.9 0.11 0.51 0.46 86 1005.5
20260506171559 60 36 0.0 2.6 0.11 0.48 0.43 87 1005.4
20260506170106 59 50 0.0 1.7 0.10 0.45 0.40 87 1005.5
20260506164552 58 41 0.0 0.9 0.10 0.42 0.37 87 1005.7
20260506163056 57 92 0.0 0.9 0.10 0.39 0.34 85 1005.9
20260506161549 57 92 0.0 0.9 0.10 0.37 0.32 85 1006.0
20260506160046 57 91 0.0 0.9 0.10 0.34 0.28 85 1006.3
20260506154603 56 92 0.0 0.9 0.11 0.32 0.27 85 1006.7
20260506153041 55 92 0.0 0.0 0.12 0.28 0.24 83 1006.7
20260506151541 55 92 0.0 0.9 0.14 0.27 0.22 83 1006.8
20260506150039 55 91 0.0 0.9 0.14 0.24 0.19 82 1007.0
20260506144544 55 104 0.0 0.9 0.13 0.21 0.16 81 1007.3
20260506143037 55 105 0.0 0.0 0.09 0.17 0.12 80 1007.6
20260506141536 55 104 0.0 0.9 0.06 0.12 0.07 79 1007.5
20260506140036 55 204 0.0 0.9 0.04 0.10 0.05 78 1007.7
20260506134533 55 217 0.0 0.9 0.03 0.08 0.03 78 1007.4
20260506133039 55 217 0.0 0.9 0.02 0.07 0.02 77 1007.2
20260506131534 55 217 0.0 0.9 0.01 0.06 0.01 77 1007.4
20260506130036 55 34 0.0 0.9 0.01 0.06 0.01 75 1007.5
20260506124532 55 136 0.0 0.9 0.00 0.05 0.00 75 1007.4
20260506123031 55 136 0.0 0.0 0.00 0.05 0.00 74 1007.9
20260506121531 55 136 0.0 0.0 0.00 0.05 0.00 75 1008.1
20260506120032 55 150 0.0 0.9 0.00 0.05 0.00 75 1008.2
20260506114532 55 84 0.0 0.9 0.00 0.05 0.00 76 1007.9
20260506113030 55 161 0.0 0.9 0.00 0.05 0.00 76 1007.8
20260506111529 54 95 0.0 0.9 0.00 0.05 0.00 75 1007.2
20260506110030 54 53 0.0 0.9 0.00 0.05 0.00 75 1007.8
20260506104554 54 77 0.0 0.9 0.00 0.08 0.00 76 1007.6
20260506103027 54 77 0.0 0.9 0.00 0.08 0.00 76 1007.3
20260506101529 54 76 0.0 0.9 0.00 0.08 0.00 76 1007.5
20260506100029 53 75 0.0 0.9 0.00 0.08 0.00 76 1007.1
20260506094532 53 106 0.0 0.0 0.00 0.08 0.00 76 1007.1
20260506093023 53 106 0.0 0.0 0.00 0.08 0.00 76 1007.2
20260506091523 53 106 0.0 0.0 0.00 0.08 0.00 76 1007.1
20260506090021 53 106 0.0 0.0 0.00 0.08 0.00 75 1007.2
20260506084519 54 106 0.0 0.0 0.00 0.08 0.00 75 1007.3
20260506083033 54 106 0.0 0.0 0.00 0.08 0.00 73 1007.6
20260506081514 55 106 0.0 0.0 0.00 0.08 0.00 72 1007.7
20260506073008 56 105 0.0 0.0 0.00 0.08 0.00 70 1008.3
20260506071506 56 105 0.0 0.0 0.00 0.08 0.00 68 1008.1
20260506061600 57 91 0.0 0.9 0.00 0.08 0.00 71 1008.6
20260506044600 59 43 0.0 0.9 0.00 0.08 0.00 68 1008.9
20260506043053 59 110 0.0 2.6 0.00 0.08 0.00 67 1008.8
20260506041546 60 82 0.0 0.9 0.00 0.08 0.00 67 1008.8
20260506040047 61 96 1.7 4.3 0.01 0.08 0.00 65 1008.6
20260506034537 61 82 1.7 4.3 0.01 0.08 0.08 66 1008.3
20260506033036 61 113 1.7 4.3 0.01 0.08 0.08 68 1008.2
20260506031539 62 103 0.0 4.3 0.01 0.08 0.08 70 1008.2
20260506030035 61 63 0.0 7.0 0.03 0.07 0.07 73 1008.4
20260506024541 61 88 0.0 0.9 0.03 0.07 0.07 76 1007.7
20260506023032 61 58 0.0 0.9 0.03 0.07 0.07 75 1007.6
20260506021547 62 21 0.0 0.9 0.04 0.07 0.07 72 1007.7
20260506020029 62 20 0.0 0.9 0.01 0.04 0.04 71 1007.8
20260506014528 63 20 0.0 0.9 0.01 0.04 0.04 68 1007.5
20260506013027 63 20 0.0 0.9 0.00 0.03 0.03 65 1007.3
20260506011528 64 20 0.0 1.7 0.00 0.03 0.03 62 1007.2
20260506010024 65 62 0.0 0.9 0.00 0.03 0.03 60 1007.1
20260506004523 65 316 0.0 0.9 0.00 0.03 0.03 58 1006.9
20260506003024 66 317 0.0 0.9 0.00 0.03 0.03 57 1006.7
20260506001523 66 317 0.0 0.9 0.00 0.03 0.03 57 1006.3
20260506000022 66 261 0.0 6.1 0.00 0.03 0.03 57 1006.2
20260505234521 67 21 0.0 0.9 0.00 0.03 0.03 56 1006.2
20260505233020 68 312 0.0 1.7 0.00 0.03 0.03 54 1005.8
20260505231526 68 237 0.0 1.7 0.00 0.03 0.03 54 1005.8
20260505230019 68 127 0.0 3.5 0.00 0.03 0.03 53 1006.0
20260505224527 68 356 0.0 1.7 0.00 0.03 0.03 53 1005.9
20260505223018 68 290 0.0 1.7 0.00 0.03 0.03 53 1006.0